Location: Boston
(42.3580°N, 71.0600°W)
Time: 16:51:24
(UTC-05:00)

OTV 5 (USA 277) - Pass Details

Date: 09 October 2017
Orbit: 404 x 417 km, 43.0° (Epoch: 07 September)

Event Time Altitude Azimuth Distance (km) Brightness Sun altitude
Rises 20:34:37 0° 247° (WSW) 2,348 ? -27.0°
Reaches altitude 10° 20:36:44 10° 244° (WSW) 1,486 ? -27.4°
Enters shadow 20:37:20 14° 243° (WSW) 1,245 ? -27.5°
